Regional Weather Roundup
Issued by NWS

Home | Current Version | Previous Version | Graphics & Text | Print | Product List | Glossary On
Versions: 1 2 3 4 5 6 7 8 9 10 11 12 13 14 15 16 17 18 19 20 21 22 23 24 25 26 27 28 29 30 31 32 33 34 35 36 37 38 39 40 41 42 43 44 45 46 47 48 49 50
057
ASUS43 KLSX 291757
RWRMO

WEATHER SUMMARY FOR MISSOURI
NATIONAL WEATHER SERVICE SPRINGFIELD MO
100 PM CDT WED MAR 29 2017

NOTE: "FAIR" INDICATES FEW OR NO CLOUDS BELOW 12,000 FEET WITH NO
       SIGNIFICANT WEATHER AND/OR OBSTRUCTIONS TO VISIBILITY.
       CURRENT SKY AND/OR WEATHER CONDITIONS ARE NOT AVAILABLE FOR
       CHILLICOTHE AND FARMINGTON.

MOZ001>031-035>038-043-044-053-054-291900-
...NORTHERN AND WESTERN MISSOURI...

CITY           SKY/WX    TMP DP  RH WIND       PRES   REMARKS
KANSAS CTY INT CLOUDY    50  49  96 E21       29.74F
6HR MIN TEMP:  48; 6HR MAX TEMP:  50; 6HR PCP:  0.13;

LEE`S SUMMIT   CLOUDY    54  52  93 E18G29    29.74F
6HR MIN TEMP:  49; 6HR MAX TEMP:  54; 6HR PCP:  0.05;

ST JOSEPH      CLOUDY    49  48  97 E14G24    29.78F
6HR MIN TEMP:  48; 6HR MAX TEMP:  49; 6HR PCP:  0.28;


$$
MOZ066>068-077>081-088>096-101>105-291900-
...SOUTHWEST MISSOURI...

CITY           SKY/WX    TMP DP  RH WIND       PRES   REMARKS
SPRINGFIELD    MOSUNNY   68  59  73 SE24G36   29.72F
6HR MIN TEMP:  55; 6HR MAX TEMP:  68; 6HR PCP:  0.02;

JOPLIN         PTSUNNY   70  59  68 S17G28    29.67F
6HR MIN TEMP:  56; 6HR MAX TEMP:  70;

BRANSON        PTSUNNY   66  59  77 SE17G29   29.77F

$$
MOZ032>034-039>042-045>050-055>058-069>072-291900-
...CENTRAL MISSOURI...

CITY           SKY/WX    TMP DP  RH WIND       PRES   REMARKS
COLUMBIA       NOT AVBL
JEFFERSON CITY CLOUDY    56  50  80 E24G32    29.85F
6HR MIN TEMP:  53; 6HR MAX TEMP:  56; 6HR PCP:  0.27;

ROLLA          CLOUDY    63  55  75 E14G22    29.82F
6HR MIN TEMP:  52; 6HR MAX TEMP:  64; 6HR PCP:  0.01;

SEDALIA        LGT RAIN  54  53  97 E22G30    29.79F
6HR MIN TEMP:  51; 6HR MAX TEMP:  54; 6HR PCP:  0.02;

WARRENSBURG    CLOUDY    52  52 100 E16G25    29.77F
OSAGE BEACH    LGT RAIN  63  55  77 E9        29.80F

$$
MOZ051-052-059>065-291900-
...EAST CENTRAL MISSOURI...

CITY           SKY/WX    TMP DP  RH WIND       PRES   REMARKS
ST LOUIS INTL  LGT RAIN  57  50  77 E15       29.99F
6HR MIN TEMP:  49; 6HR MAX TEMP:  57; 6HR PCP:  0.01;


$$
MOZ072>076-082>087-097>100-106>115-291900-
...SOUTH CENTRAL AND SOUTHEAST MISSOURI...

CITY           SKY/WX    TMP DP  RH WIND       PRES   REMARKS
CAPE GIRARDEAU CLOUDY    66  55  67 SE12      29.96F
6HR MIN TEMP:  53; 6HR MAX TEMP:  66; 6HR PCP:  0.01;

POPLAR BLUFF   CLOUDY    68  60  75 E9        29.91F
6HR MIN TEMP:  56; 6HR MAX TEMP:  68; 6HR PCP: TRACE;

WEST PLAINS    MOSUNNY   66  57  72 SE15G25   29.83F
6HR MIN TEMP:  54; 6HR MAX TEMP:  66; 6HR PCP: TRACE;


$$



USA.gov is the U.S. government's official web portal to all federal, state and local government web resources and services.